Regional Weather Roundup
Issued by NWS Charleston, SC

Current Version | Previous Version | Text Only | Print | Product List | Glossary Off
Versions: 1 2 3 4 5 6 7 8 9 10 11 12 13 14 15 16 17 18 19 20 21 22 23 24 25 26 27 28 29 30 31 32 33 34 35 36 37 38 39 40 41 42 43 44 45 46 47 48 49 50

000
ASUS42 KCHS 161525
RWRCHS

REGIONAL WEATHER ROUNDUP
NATIONAL WEATHER SERVICE CHARLESTON SC
1100 AM EDT TUE SEP 16 2014

NOTE: "FAIR" INDICATES FEW OR NO CLOUDS BELOW 12,000 FEET WITH NO
SIGNIFICANT WEATHER AND/OR OBSTRUCTIONS TO VISIBILITY.

NOT ALL STATIONS ARE QUALITY CONTROLLED BY THE NATIONAL
WEATHER SERVICE. USE DATA WITH CAUTION...ESPECIALLY
DEWPOINT OBSERVATIONS.

SCZ027-030-031-034>040-042>050-161600-
...SOUTH CAROLINA...

CITY           SKY/WX    TMP DP  RH WIND       PRES   REMARKS
N CHARLESTON   PTSUNNY   83  74  74 NW7       30.06S
WATERFRONT PRK   N/A     82 N/A N/A CALM        N/A
FORT JOHNSON   NOT AVBL
MOUNT PLEASANT DRIZZLE   82  75  78 NW5       30.05S
JOHNS ISLAND   PTSUNNY   82  82 100 CALM      30.06S HX  97
PINOPOLIS        N/A     81  73  78 NW5       29.99R
MONCKS CORNER    N/A     81  77  89 CALM      30.06S
SUMMERVILLE    CLOUDY    81  77  89 NW5       30.07S
BEAUFORT MCAS  PTSUNNY   84  73  69 S6        30.05F HX  90
BEAUFORT ARPT  FAIR      82  75  78 W5        30.05S
HILTON HEAD IS PTSUNNY   81  72  74 N7        30.07S
GEORGETOWN     NOT AVBL
WALTERBORO     PTSUNNY   82  77  83 NW6       30.07S HX  91
ORANGEBURG     CLOUDY    78  71  79 NW3       30.07S
BARNWELL       CLOUDY    79  73  83 NW3       30.08S
AIKEN          PTSUNNY   77  77 100 CALM      30.11F
MANNING        PTSUNNY   81  77  89 SW3       30.05F
KINGSTREE      NOT AVBL
COLUMBIA       PTSUNNY   80  69  69 VRB6      30.06R
SUMTER         CLOUDY    78  68  72 VRB5      30.05S
FLORENCE       CLOUDY    78  70  76 NW8       30.06S
MYRTLE BEACH   PTSUNNY   81  72  74 NW9       30.05S
N MYRTLE BEACH MOSUNNY   80  71  74 NW8       30.04F

$$

GAZ063-065-086>088-099>101-113>116-118-119-134-136>141-150-161600-
...GEORGIA...

CITY           SKY/WX    TMP DP  RH WIND       PRES   REMARKS
SAVANNAH ARPT  CLOUDY    80  73  79 W6        30.07S
HUNTER AAF     CLOUDY    79  75  89 NW5       30.04F
FORT STEWART   CLOUDY    79  73  81 N6        30.05F
STATESBORO     NOT AVBL
SYLVANIA       PTSUNNY   81  75  81 NW5       30.08S
CLAXTON        NOT AVBL
THOMSON        PTSUNNY   80  78  92 CALM      30.12F
AUGUSTA-BUSH   CLOUDY    79  72  79 CALM      30.06F
AUGUSTA-DANIEL PTSUNNY   79  72  79 NW7       30.08F
SWAINSBORO     CLOUDY    79  79 100 CALM      30.08F
VIDALIA        CLOUDY    77  73  88 N6        30.07F
ALMA           CLOUDY    79  73  82 N5        30.06S
WAYCROSS       CLOUDY    82  78  89 N5        30.05F HX  91
JESUP          CLOUDY    81  77  89 N3        30.06F
BRUNSWICK      CLOUDY    77  73  88 CALM      30.06F
SAINT SIMONS   CLOUDY    76  73  91 W5        30.06F

$$

SCZ027-028-034-036>038-045-046-048>050-GAZ119-141-161600-
...LAKE AND SUPPLEMENTAL COASTAL OBSERVATIONS...

STATION/POSITION TIME  TEMP    WIND        PRES    WAVE   SWELL
                       AIR SEA DIR/SP/G            HT/PER HT/PER/DIR
                 (UTC) (F)     (DEG/KT/KT) (MB)    (FT/S) (FT/S/D)
UPR LAKE MARION  NOT AVBL
WINYAH BAY       1500   78     310/  5     1017.0S
LAKE MURRAY      1400   77     260/  3/  6 1017.3S
ACE BASIN NERRS  1500   81     290/  1     1018.0S
FORT PULASKI     1500   79     270/  6/  8 1018.2S
SAPELO ISLAND    1500   80     330/  2     1018.0S

$$

ANZ835-935-AMZ111-154-330-350-352-354-374-450-454-472-161600-
...C-MAN AND BUOY OBSERVATIONS...

STATION/POSITION TIME  TEMP    WIND        PRES    WAVE   SWELL
                       AIR SEA DIR/SP/G            HT/PER HT/PER/DIR
                 (UTC) (F)     (DEG/KT/KT) (MB)    (FT/S) (FT/S/D)
FOLLY BEACH CMAN 1500   80     310/  3/  4 1018.2R
BUOY 41004       1500   81 83  330/  4/  4 1017.2S   1/ 8   2/ 8
BUOY 41008       1500   78 84  320/  8/ 10 1017.8F   2/ 8   2/ 90/ 8
5E ST. MARYS GA  1500      84                N/A     2/ 8
FRYING PAN BUOY  NOT AVBL
BUOY 41025       1500   76     320/  4/  4 1017.1F   2/ 8   2/ 30/ 8
CAPE LOOKOUT NC  1500   75     130/  2/  2 1017.3F
BUOY 41002       1426   80 83  280/  4/  6 1017.8F   3/ 7   3/ 40/ 7
BUOY 41010       1500   83 85  290/  6/  8 1018.7R   2/ 8   2/ 50/ 8
BUOY 41012       NOT AVBL
ST AUGUSTINE FL  1500   81     250/  6/  9 1019.0F
CAPERS NEARSHORE 1400   79     330/  4/  4   N/A
FRIPP NEARSHORE  NOT AVBL


$$



USA.gov is the U.S. government's official web portal to all federal, state and local government web resources and services.